This is the latest recevied weather packets stored in our database for station/object VU2COR-13. If no packets are shown the sender has not sent any weather packets the latest 1 day(s).
| Time | Temp. | Humidity | Pressure | Rain* | Wind** | Luminosity | Snow |
|---|---|---|---|---|---|---|---|
| 1778245043 | 37.78° C | 35% | 978.3 hPa | - | - | - | - |
| 1778244443 | 37.22° C | 35% | 978.3 hPa | - | - | - | - |
| 1778239043 | 38.89° C | 33% | 977.9 hPa | - | - | - | - |
| 1778238443 | 38.89° C | 34% | 977.9 hPa | - | - | - | - |
| 1778236043 | 38.89° C | 34% | 978.2 hPa | - | - | - | - |
| 1778234843 | 37.78° C | 34% | 978.4 hPa | - | - | - | - |
| 1778233643 | 37.78° C | 35% | 978.5 hPa | - | - | - | - |
| 1778230642 | 38.33° C | 35% | 979.1 hPa | - | - | - | - |
| 1778229442 | 37.22° C | 36% | 979.5 hPa | - | - | - | - |
| 1778228842 | 37.22° C | 36% | 979.6 hPa | - | - | - | - |
| 1778228242 | 37.22° C | 36% | 979.6 hPa | - | - | - | - |
| 1778225843 | 36.11° C | 36% | 979.9 hPa | - | - | - | - |
| 1778222842 | 35° C | 38% | 980.2 hPa | - | - | - | - |
| 1778222242 | 34.44° C | 38% | 980.3 hPa | - | - | - | - |
| 1778221642 | 35° C | 37% | 980.4 hPa | - | - | - | - |
| 1778221042 | 35° C | 37% | 980.6 hPa | - | - | - | - |
| 1778220442 | 35° C | 38% | 980.6 hPa | - | - | - | - |
| 1778219842 | 35° C | 38% | 980.6 hPa | - | - | - | - |
| 1778219242 | 34.44° C | 39% | 980.7 hPa | - | - | - | - |
| 1778218642 | 33.33° C | 39% | 980.8 hPa | - | - | - | - |
| 1778218042 | 33.89° C | 39% | 980.8 hPa | - | - | - | - |
| 1778217442 | 33.33° C | 41% | 980.8 hPa | - | - | - | - |
| 1778216842 | 33.33° C | 41% | 980.7 hPa | - | - | - | - |
| 1778216242 | 33.33° C | 43% | 980.8 hPa | - | - | - | - |
| 1778215642 | 32.78° C | 44% | 980.8 hPa | - | - | - | - |
* Rain since midnight (hover to see other rain measurements)
** Current wind speed in m/s (hover to see current wind gust speed)